Flag for U.S.A. Weather past 2 weeks in Decatur, Illinois, U.S.A.

Now
68 °F

Rain. Fog.


Feels Like: 68 °F
Forecast: 66 / 78 °F
Wind: 13 mph from West

Location: Decatur Airport

Current Time: Oct 1, 2014 at 11:39:03 PM

Latest Report: Oct 1, 2014 at 11:04 PM


Visibility: 3 mi

Pressure: 29.93 "Hg

Humidity: 90%

Dew point: 65 °F

Location of DecaturLocation

Historic Weather in Decatur — Graph

°F

Decatur temperature yesterday

Maximum temperature yesterday: 74 °F (at 3:54 PM)
Minimum temperature yesterday: 53 °F (at 11:54 PM)
Average temperature yesterday: 62 °F

Past Weeks' High & Low Weather Summary

 TemperatureHumidityPressure
High85 °F (Sep 28, 3:54 PM)97% (Sep 17, 4:54 AM)30.36 "Hg (Sep 17, 4:54 AM)
Low44 °F (Sep 23, 4:54 AM)31% (Sep 24, 2:54 PM)29.83 "Hg (Sep 21, 1:54 AM)
Average64 °F70%30.10 "Hg
* Reported Sep 16 9:54 PM — Oct 1 9:54 PM, Decatur, Weather by CustomWeather, © 2014

Note: Actual official high and low records may vary slightly from our data, if they occured in-between our weather recording intervals... More about our weather records

Advertising

Decatur weather history for previous 24 hours

 ConditionsComfort  
Time TempWeatherWind HumidityBarometerVisibility
9:54 PM
Oct 1
71 °FPassing clouds.6 mph68%29.89 "Hg10 mi
8:54 PM73 °FPassing clouds.6 mph64%29.89 "Hg10 mi
7:54 PM74 °FClear.7 mph62%29.87 "Hg10 mi
6:54 PM75 °FSunny.8 mph60%29.85 "Hg10 mi
5:54 PM78 °FSunny.9 mph54%29.85 "Hg10 mi
4:54 PM81 °FSunny.8 mph47%29.85 "Hg10 mi
3:54 PM83 °FPartly sunny.13 mph43%29.85 "Hg10 mi
2:54 PM82 °FPartly sunny.13 mph44%29.87 "Hg10 mi
1:54 PM82 °FPassing clouds.13 mph44%29.88 "Hg10 mi
12:54 PM79 °FScattered clouds.9 mph48%29.92 "Hg10 mi
11:54 AM77 °FSunny.9 mph58%29.94 "Hg10 mi
10:54 AM72 °FSunny.12 mph66%29.95 "Hg10 mi
9:54 AM65 °FSunny.7 mph73%29.97 "Hg10 mi
8:54 AM58 °FPassing clouds.9 mph84%29.97 "Hg10 mi
7:54 AM54 °FScattered clouds.7 mph90%29.97 "Hg10 mi
6:54 AM52 °FPassing clouds.7 mph89%29.96 "Hg10 mi
5:54 AM50 °FClear.5 mph93%29.96 "Hg10 mi
4:54 AM50 °FClear.7 mph93%29.95 "Hg10 mi
3:54 AM50 °FClear.6 mph89%29.95 "Hg10 mi
2:54 AM50 °FClear.7 mph89%29.96 "Hg10 mi
1:54 AM51 °FClear.8 mph89%29.97 "Hg10 mi
12:54 AM52 °FClear.9 mph86%29.96 "Hg10 mi
11:54 PM
Sep 30
53 °FClear.10 mph86%29.97 "Hg10 mi
Weather by CustomWeather, © 2014

See weather overviewHow to use our weather pages